Regional Weather Roundup
Issued by NWS Jackson, KY

Home | Current Version | Previous Version | Graphics & Text | Print | Product List | Glossary On
Versions: 1 2 3 4 5 6 7 8 9 10 11 12 13 14 15 16 17 18 19 20 21 22 23 24 25 26 27 28 29 30 31 32 33 34 35 36 37 38 39 40 41 42 43 44 45 46 47 48 49 50
000
ASUS43 KJKL 101211
RWRJKL

EAST KENTUCKY HOURLY WEATHER ROUNDUP
NATIONAL WEATHER SERVICE JACKSON KY
800 AM EDT THU JUL 10 2014

NOTE: "FAIR" INDICATES FEW OR NO CLOUDS BELOW 12,000 FEET WITH
NO SIGNIFICANT WEATHER AND/OR OBSTRUCTIONS TO VISIBILITY.

* THESE REPORTS ARE NOT UNDER NWS QUALITY CONTROL AND MAY NOT
  REPORT WEATHER SUCH AS PRECIPITATION AND FOG.

KYZ079-080-083-085-087-088-110-112-115-119-120-101300
...EASTERN KENTUCKY...

CITY           SKY/WX    TMP DP  RH WIND       PRES   REMARKS
JACKSON          N/A     67  63  87 CALM      30.10R
6HR MIN TEMP:  63; 6HR MAX TEMP:  70;

LONDON         FOG       64  63  96 CALM      30.10R VSB 1/4
6HR MIN TEMP:  63; 6HR MAX TEMP:  66;

SOMERSET*        N/A     64  63  94 CALM      30.10S
MONTICELLO*      N/A     66  64  93 CALM      30.11R
6HR MIN TEMP:  59; 6HR MAX TEMP:  66;

WILLIAMSBURG*  PTSUNNY   64  64 100 CALM      30.10
MIDDLESBORO*   CLOUDY    67  67  97 CALM      30.11R
6HR MIN TEMP:  67; 6HR MAX TEMP:  68;

HARLAN APT*    CLOUDY    64  63  94 MISG      30.12R VSB 3/4
HAZARD APT*    SUNNY     64  64 100 CALM      30.10
BLACK MTN*       N/A     63  59  88 NW1         N/A
PIKEVILLE APT* FOG       64  64 100 CALM      30.11R VSB 0
BIG SANDY*     PTSUNNY   65  65 100 CALM      30.09S FOG
6HR MIN TEMP:  62; 6HR MAX TEMP:  68;

MOREHEAD APT*    N/A     64  61  88 S5        30.10S
$$

KYZ035-036-041-042-044-050-067-078-099-101300
...CENTRAL KENTUCKY...

CITY           SKY/WX    TMP DP  RH WIND       PRES   REMARKS
MT STERLING*     N/A     63  61  94 CALM      30.09S
FLEMING/MASON* MOSUNNY   64  61  88 CALM      30.10R
DANVILLE*        N/A     63  59  88 CALM      30.10R
RICHMOND*        N/A     64  61  88 CALM      30.08S
LEXINGTON        N/A     66  61  84 CALM      30.09R
6HR MIN TEMP:  62; 6HR MAX TEMP:  67;

FRANKFORT      PTSUNNY   65  62  90 CALM      30.08R
6HR MIN TEMP:  63; 6HR MAX TEMP:  66;

$$

KYZ091>093-OHZ055-061-077-WVZ005-015-034-035-042-101300
...SOUTHERN OHIO/WEST VIRGINIA...

CITY           SKY/WX    TMP DP  RH WIND       PRES   REMARKS
COVINGTON      PTSUNNY   66  59  78 N5        30.09R
COLUMBUS       PTSUNNY   67  61  81 N3        30.09R
DAYTON           N/A     65  58  78 N6        30.11R
WILMINGTON       N/A     63  59  87 NE5       30.09R
HUNTINGTON       N/A     65  63  93 CALM      30.07R
CHARLESTON       N/A     67  67 100 CALM      30.08R FOG
PINEVILLE*     FOG       65  65 100 MISG      30.17R VSB 1/4
BECKLEY          N/A     67  64  90 CALM      30.15R
BLUEFIELD      PTSUNNY   67  62  84 W3        30.17R
$$

VAZ002-007-008-TNZ017-027-036-066-071-101300
...SOUTHWEST VIRGINIA/EAST TENNESSEE...

CITY           SKY/WX    TMP DP  RH WIND       PRES   REMARKS
WISE*            N/A     64  64 100 E5        30.17R
JONESVILLE*    PTSUNNY   68  68 100 CALM      30.14R FOG
ABINGDON*      CLOUDY    69  67  94 S3        30.15R
BRISTOL        PTSUNNY   70  65  84 CALM      30.12R
KNOXVILLE      PTSUNNY   69  68  96 NE3       30.08R
OAK RIDGE      CLOUDY    69  68  96 CALM      30.10R FOG
CROSSVILLE     HAZE      71  66  84 CALM      30.13R VSB<1/4
NASHVILLE      PTSUNNY   69  66  90 CALM      30.07R
$$

...KEY TO REMARKS...
VSB - VISIBILITY IN MILES
WCI - WIND CHILL INDEX
HX  - HEAT INDEX

$$


USA.gov is the U.S. government's official web portal to all federal, state and local government web resources and services.